Stations météo

réclame
Mon MeteoGroup
Ornskoldsvik Airport, Suède (2267): Température de l'air & dewpoint: 17.10.2018 22:00:00 - 23.10.2018 22:00:00 (CEST)Ornskoldsvik Airport, Suède (2267): Vitesse du vent: 17.10.2018 22:00:00 - 23.10.2018 22:00:00 (CEST)Ornskoldsvik Airport, Suède (2267): Direction du vent: 17.10.2018 22:00:00 - 23.10.2018 22:00:00 (CEST)Ornskoldsvik Airport, Suède (2267): reduced air pressure: 17.10.2018 22:00:00 - 23.10.2018 22:00:00 (CEST)Ornskoldsvik Airport, Suède (2267): visibility: 17.10.2018 22:00:00 - 23.10.2018 22:00:00 (CEST)
Date & Time tt [°C] td [°C] ff [km/h] ff [knt] dd ppp [hPa] vv [km]
23.10.2018 22:00:00 -0,3 -1,3 9 5 NW 992,9 10
23.10.2018 21:00:00 -2,9 -3,9 5 3 WNW 992,3 10
23.10.2018 20:00:00 -2,5 -3,3 5 3 NW 992,0 10
23.10.2018 19:00:00 -1,4 -3,3 4 2 NW 991,4 10
23.10.2018 18:00:00 -0,1 -2,8 8 4 WSW 991,0 10
23.10.2018 17:00:00 2,9 -2,4 8 4 W 990,5 10
23.10.2018 16:00:00 2,9 -2,4 4 2 NW 990,5 10
23.10.2018 15:00:00 3,6 -1,6 8 4 NNW 990,5 10
23.10.2018 14:00:00 3,6 -1,4 5 3 NW 990,9 10
23.10.2018 13:00:00 2,5 -1,8 5 3 NNW 991,3 10
23.10.2018 12:00:00 1,9 -1,2 5 3 - 991,4 10
23.10.2018 11:00:00 0,9 -0,7 5 3 N 991,6 10
23.10.2018 10:00:00 -0,3 -1,7 5 3 NW 991,7 10
23.10.2018 09:00:00 -2,2 -3,0 4 2 - 992,3 10
23.10.2018 08:00:00 -4,3 -4,8 5 3 W 992,7 10
23.10.2018 07:00:00 -4,1 -4,6 5 3 ENE 992,9 10
23.10.2018 06:00:00 -3,1 -3,8 4 2 S 993,3 10
23.10.2018 05:00:00 -1,1 -2,8 11 6 NNW 993,6 10
23.10.2018 04:00:00 -0,6 -2,8 9 5 N 994,7 10
23.10.2018 03:00:00 -0,7 -3,2 9 5 WNW 996,0 10
23.10.2018 02:00:00 0,1 -2,4 8 4 WSW 997,4 10
23.10.2018 01:00:00 0,5 -2,5 15 8 WSW 998,4 10
23.10.2018 00:00:00 1,6 -2,4 22 12 W 998,7 10
22.10.2018 23:00:00 1,7 -2,3 15 8 SW 999,4 10
22.10.2018 22:00:00 2,3 -1,9 21 11 WSW 1000,1 10
22.10.2018 21:00:00 2,9 -1,5 26 14 W 1000,2 10
22.10.2018 20:00:00 3,8 -1,2 26 14 W 1000,3 10
22.10.2018 19:00:00 4,6 -1,2 26 14 W 1000,4 10
22.10.2018 18:00:00 5,0 -0,8 26 14 W 1000,6 10
22.10.2018 17:00:00 5,1 -0,5 21 11 WSW 1000,5 10
22.10.2018 16:00:00 5,4 -0,7 18 10 WSW 1000,9 10
22.10.2018 15:00:00 5,7 -1,2 22 12 WSW 1000,8 10
22.10.2018 14:00:00 5,7 -0,8 28 15 W 1001,0 10
22.10.2018 13:00:00 5,8 -0,3 18 10 WSW 1001,1 10
22.10.2018 12:00:00 5,4 0,2 21 11 WSW 1001,5 10
22.10.2018 11:00:00 3,8 0,8 15 8 WSW 1002,2 10
22.10.2018 10:00:00 2,9 0,8 13 7 SW 1002,4 10
22.10.2018 09:00:00 2,2 0,6 11 6 SW 1002,6 10
22.10.2018 08:00:00 1,9 0,1 8 4 WSW 1002,2 10
22.10.2018 07:00:00 2,9 0,6 15 8 W 1002,1 10
22.10.2018 06:00:00 2,7 1,2 16 9 WSW 1002,1 10
22.10.2018 05:00:00 3,9 1,6 26 14 W 1001,8 10
22.10.2018 04:00:00 4,3 2,3 15 8 W 1001,9 10
22.10.2018 03:00:00 4,8 3,5 13 7 W 1001,8 10
22.10.2018 02:00:00 5,0 4,3 11 6 WSW 1001,2 10
22.10.2018 01:00:00 5,5 4,3 13 7 W 1000,9 10
22.10.2018 00:00:00 5,6 4,7 15 8 WNW 1001,5 9
21.10.2018 23:00:00 6,0 5,4 9 5 W 1002,1 10
21.10.2018 22:00:00 6,2 6,1 9 5 SW 1003,0 7
21.10.2018 21:00:00 5,8 5,7 2 1 - 1002,9 5
21.10.2018 20:00:00 5,9 5,6 5 3 - 1004,2 5
21.10.2018 19:00:00 6,1 6,0 8 4 S 1004,9 5
21.10.2018 18:00:00 6,0 5,7 8 4 SSW 1005,7 5
21.10.2018 17:00:00 6,1 5,8 8 4 SW 1006,6 6
21.10.2018 16:00:00 6,1 5,8 11 6 S 1007,0 6
21.10.2018 15:00:00 6,8 6,2 4 2 NW 1007,4 10
21.10.2018 14:00:00 6,7 6,0 5 3 SSW 1008,3 6
21.10.2018 13:00:00 6,3 5,4 9 5 W 1008,8 10
21.10.2018 12:00:00 6,0 5,0 8 4 SW 1009,4 10
21.10.2018 11:00:00 5,5 4,8 9 5 SW 1009,9 10
21.10.2018 10:00:00 5,4 4,7 11 6 SW 1009,8 10
21.10.2018 09:00:00 5,4 4,5 11 6 S 1010,1 10
21.10.2018 08:00:00 5,7 4,3 13 7 SSW 1011,0 9
21.10.2018 07:00:00 6,5 3,6 13 7 SSW 1011,6 10
21.10.2018 06:00:00 6,9 3,1 16 9 SSW 1011,8 10
21.10.2018 05:00:00 5,9 3,2 15 8 S 1012,9 10
21.10.2018 04:00:00 4,2 2,4 13 7 SSW 1013,5 10
21.10.2018 03:00:00 2,9 1,9 9 5 SSW 1015,2 10
21.10.2018 02:00:00 1,3 0,7 8 4 SSW 1016,4 10
21.10.2018 01:00:00 -0,4 -0,8 8 4 WSW 1017,2 10
21.10.2018 00:00:00 1,0 0,4 5 3 WSW 1017,7 10
20.10.2018 23:00:00 0,3 -0,6 5 3 WSW 1018,0 10
20.10.2018 22:00:00 3,3 2,1 9 5 SW 1018,5 10
20.10.2018 21:00:00 1,8 0,9 4 2 W 1018,8 10
20.10.2018 20:00:00 2,9 1,4 5 3 SW 1019,0 10
20.10.2018 19:00:00 5,1 2,3 11 6 W 1019,3 10
20.10.2018 18:00:00 6,8 3,2 9 5 W 1019,0 10
20.10.2018 17:00:00 7,1 3,0 5 3 W 1018,8 10
20.10.2018 16:00:00 8,9 3,3 9 5 W 1018,8 10
20.10.2018 15:00:00 9,4 3,2 8 4 W 1018,9 10
20.10.2018 14:00:00 9,2 3,4 5 3 W 1018,6 10
20.10.2018 13:00:00 8,9 4,3 2 1 - 1018,4 10
20.10.2018 12:00:00 7,4 3,4 4 2 - 1018,5 10
20.10.2018 11:00:00 6,5 3,5 5 3 NNW 1018,5 10
20.10.2018 10:00:00 5,4 3,1 5 3 NNW 1017,8 10
20.10.2018 09:00:00 2,7 1,8 4 2 NW 1017,7 10
20.10.2018 08:00:00 2,4 1,7 5 3 NW 1017,5 10
20.10.2018 07:00:00 2,6 1,7 4 2 WNW 1017,6 10
20.10.2018 06:00:00 2,8 1,8 5 3 N 1017,3 10
20.10.2018 05:00:00 2,9 1,9 8 4 WNW 1017,4 10
20.10.2018 04:00:00 2,6 1,6 4 2 - 1017,4 10
20.10.2018 03:00:00 1,8 0,8 8 4 W 1017,6 10
20.10.2018 02:00:00 2,2 1,2 8 4 W 1017,8 10
20.10.2018 01:00:00 2,1 0,9 5 3 W 1017,7 10
20.10.2018 00:00:00 2,7 0,3 5 3 NW 1017,7 10
19.10.2018 23:00:00 5,4 1,7 4 2 W 1017,8 10
19.10.2018 22:00:00 5,4 1,9 9 5 WNW 1017,7 10
19.10.2018 21:00:00 6,4 1,9 18 10 WNW 1017,8 10
19.10.2018 20:00:00 6,1 1,5 13 7 NW 1017,5 10
19.10.2018 19:00:00 5,5 1,0 11 6 WNW 1017,6 10
19.10.2018 18:00:00 6,1 1,0 15 8 WNW 1017,6 10
19.10.2018 17:00:00 6,7 0,8 18 10 WNW 1017,4 10
19.10.2018 16:00:00 8,8 0,5 18 10 W 1017,3 10
19.10.2018 15:00:00 9,5 0,1 22 12 W 1017,1 10
19.10.2018 14:00:00 9,5 -0,1 22 12 W 1017,0 10
19.10.2018 13:00:00 9,2 0,1 21 11 WNW 1016,9 10
19.10.2018 12:00:00 8,5 0,5 22 12 WNW 1016,7 10
19.10.2018 11:00:00 6,6 0,3 22 12 WNW 1016,3 10
19.10.2018 10:00:00 6,6 0,5 28 15 WNW 1016,0 10
19.10.2018 09:00:00 5,6 0,2 31 17 WNW 1015,7 10
19.10.2018 08:00:00 5,2 0,0 37 20 WNW 1015,4 10
19.10.2018 07:00:00 5,1 0,1 28 15 WNW 1015,3 10
19.10.2018 06:00:00 5,6 0,2 26 14 W 1015,4 10
19.10.2018 05:00:00 5,8 0,1 29 16 WNW 1014,8 10
19.10.2018 04:00:00 6,2 0,3 18 10 W 1014,9 10
19.10.2018 03:00:00 6,3 0,4 22 12 W 1014,3 10
19.10.2018 02:00:00 5,3 0,3 18 10 WSW 1014,1 10
19.10.2018 01:00:00 5,2 0,0 18 10 WSW 1014,3 10
19.10.2018 00:00:00 5,3 0,1 16 9 WSW 1013,7 10
18.10.2018 23:00:00 6,2 0,3 21 11 W 1013,8 10
18.10.2018 22:00:00 6,2 0,3 24 13 W 1013,6 10
18.10.2018 21:00:00 6,7 0,6 22 12 WSW 1013,1 10
18.10.2018 20:00:00 6,8 0,5 21 11 WSW 1012,8 10
18.10.2018 19:00:00 7,2 0,4 22 12 W 1012,3 10
18.10.2018 18:00:00 7,5 0,2 21 11 W 1012,2 10
18.10.2018 17:00:00 8,5 0,0 18 10 W 1012,1 10
18.10.2018 16:00:00 9,5 -0,1 28 15 W 1011,6 10
18.10.2018 15:00:00 9,8 -0,1 29 16 - 1011,5 10
18.10.2018 14:00:00 9,7 0,6 28 15 W 1011,6 10
18.10.2018 13:00:00 9,5 1,9 31 17 WNW 1011,7 10
18.10.2018 12:00:00 9,1 2,6 26 14 W 1011,7 10
18.10.2018 11:00:00 6,5 3,3 8 4 SW 1012,1 10
18.10.2018 10:00:00 6,5 3,5 8 4 W 1012,0 10
18.10.2018 09:00:00 6,2 2,6 5 3 WSW 1011,7 10
18.10.2018 08:00:00 6,5 3,1 15 8 WNW 1010,9 10
18.10.2018 07:00:00 6,0 3,5 15 8 NW 1010,7 10
18.10.2018 06:00:00 5,7 3,7 18 10 WNW 1010,7 10
18.10.2018 05:00:00 6,6 5,1 16 9 WNW 1010,7 10
18.10.2018 04:00:00 4,8 4,8 8 4 WNW 1010,9 6
18.10.2018 03:00:00 4,8 4,8 8 4 W 1010,7 0,6
18.10.2018 02:00:00 5,7 5,7 4 2 - 1010,4 0,7
18.10.2018 01:00:00 6,6 6,6 8 4 SW 1010,1 6
18.10.2018 00:00:00 6,3 6,3 5 3 WNW 1010,0 0,9
17.10.2018 23:00:00 6,9 6,9 4 2 WSW 1010,0 8
17.10.2018 22:00:00 7,0 7,0 5 3 W 1009,8 5

tt = Température de l'air
td = dewpoint
ff = Vitesse du vent
dd = Direction du vent
ppp = reduced air pressure
vv = visibility

stations d'obs. à proximité